[[{"header":{"parameterUnit":"m.s-1","parameterCategory":1,"la1":30.2991,"la2":30.254,"lo1":-89.0895,"lo2":-89.0444,"dx":0.0017,"dy":0.0017,"nx":28,"ny":28,"refTime":"2022-12-14T15:00:00:Z","depth":0,"parameterNumber":2,"parameterNumberName":"U-component_of_WINDS"},"data":[0,0,0,0,0,0,0,0,0,0,0,0,0,0,0,0,0,0,0,0,0,0,0,0,0,0,0,0,0,0,0,0,0,0,0,0,0,0,0,0,0,0,0,0,0,0,0,0,0,0,0,0,0,0,0,0,0,0,-0.2128,-0.2129,0,-0.2169,-0.2169,-0.217,-0.2213,-0.2214,-0.2214,-0.2215,-0.2258,-0.2259,-0.226,0,0,0,0,0,0,0,0,0,0,0,0,0,-0.209,-0.2091,-0.2128,-0.2129,-0.2129,-0.2169,-0.2169,-0.217,-0.2213,-0.2214,-0.2214,-0.2215,-0.2258,-0.2259,-0.226,0,0,0,0,0,0,0,0,0,0,0,0,0,-0.2116,-0.2091,-0.2128,-0.2155,-0.2158,-0.2169,-0.2169,-0.217,-0.2213,-0.2214,-0.2215,-0.2215,-0.2258,-0.2259,-0.226,-0.2247,0,0,-0.2263,-0.2263,0,0,0,0,0,0,0,0,-0.2115,-0.2118,-0.2151,-0.2153,-0.2157,-0.2187,-0.2172,-0.2196,-0.2212,-0.2192,-0.2215,-0.2216,-0.2234,-0.2237,-0.2243,-0.2249,-0.2251,-0.2263,-0.2263,-0.2264,-0.2264,0,0,0,0,0,0,0,-0.2113,-0.2116,-0.2144,-0.2151,-0.2155,-0.2166,-0.2171,-0.2177,-0.2208,-0.2194,-0.2197,-0.2201,-0.2236,-0.2242,-0.2244,-0.2252,-0.2263,-0.2263,-0.2264,-0.2264,-0.2251,-0.225,0,0,0,0,0,0,-0.2107,-0.2115,-0.2143,-0.2145,-0.2138,-0.2166,-0.2172,-0.2176,-0.2208,-0.2213,-0.22,-0.2203,-0.224,-0.2243,-0.2246,-0.2233,-0.2264,-0.2264,-0.2265,-0.2252,-0.2251,-0.225,0,0,0,0,0,0,-0.2106,-0.2109,-0.2141,-0.2131,-0.2136,-0.2166,-0.2171,-0.2176,-0.2182,-0.2212,-0.2218,-0.2201,-0.224,-0.2244,-0.2246,-0.2235,-0.2265,-0.2266,-0.2253,-0.2251,-0.225,-0.2207,0,0,0,0,0,0,-0.2105,-0.2108,-0.2103,-0.213,-0.2136,-0.214,-0.217,-0.2177,-0.2184,-0.2187,-0.2214,-0.2219,-0.2241,-0.2245,-0.2247,-0.2237,-0.2266,-0.2254,-0.2252,-0.2251,-0.221,-0.2205,-0.22,0,0,0,0,0,-0.2103,-0.209,-0.2103,-0.2106,-0.213,-0.214,-0.2143,-0.2168,-0.2182,-0.2178,-0.2197,-0.2219,-0.2236,-0.2245,-0.2248,-0.2237,-0.2255,-0.2253,-0.2251,-0.2212,-0.2206,-0.22,0,0,0,0,0,0,-0.2061,-0.2094,-0.2108,-0.2103,-0.2118,-0.2147,-0.2142,-0.2161,-0.2172,-0.2175,-0.2207,-0.2213,-0.2211,-0.2225,-0.2234,-0.2227,-0.2249,-0.2247,-0.2218,-0.2212,-0.2208,-0.2204,-0.2267,0,0,0,0,0,-0.2051,-0.2055,-0.2084,-0.2077,-0.2083,-0.2111,-0.2116,-0.2134,-0.2151,-0.2158,-0.2178,-0.2194,-0.2203,-0.2209,-0.2219,-0.2213,-0.2219,-0.2207,-0.2202,-0.2198,-0.2196,-0.2194,-0.2189,-0.2243,-0.2243,-0.2243,0,0,-0.203,-0.2049,-0.205,-0.2069,-0.2082,-0.2087,-0.2116,-0.2119,-0.2123,-0.2159,-0.2161,-0.2177,-0.2197,-0.2195,-0.2195,-0.2206,-0.2183,-0.2196,-0.2192,-0.2193,-0.2192,-0.2187,-0.2182,-0.2242,-0.2242,-0.2242,0,0,-0.1995,-0.2009,-0.2005,-0.2018,-0.2038,-0.2057,-0.2056,-0.2082,-0.2093,-0.2096,-0.2123,-0.2129,-0.2144,-0.2158,-0.2167,-0.2137,-0.2157,-0.214,-0.2114,-0.2112,-0.2108,-0.2104,-0.2094,-0.209,-0.2138,-0.2138,-0.2138,0,-0.1967,-0.1973,-0.2,-0.2002,-0.201,-0.2042,-0.2038,-0.205,-0.2073,-0.2078,-0.209,-0.211,-0.2127,-0.2128,-0.2121,-0.2127,-0.2127,-0.2137,-0.2106,-0.2103,-0.21,-0.209,-0.2086,-0.2136,-0.2136,-0.2136,-0.2137,0,-0.1938,-0.1942,-0.1937,-0.1957,-0.1964,-0.1963,-0.1991,-0.1995,-0.2013,-0.2031,-0.2034,-0.2055,-0.207,-0.2072,-0.209,-0.2076,-0.2083,-0.21,-0.2122,-0.2092,-0.2084,-0.208,-0.2133,-0.2133,-0.2134,-0.2135,0,0,-0.1876,-0.1912,-0.1909,-0.1919,-0.1944,-0.1948,-0.1949,-0.1963,-0.1967,-0.1982,-0.1984,-0.1996,-0.2013,-0.2023,-0.2043,-0.2041,-0.2016,-0.2059,-0.206,-0.205,-0.2003,-0.1989,-0.1984,-0.203,-0.203,-0.2029,-0.2001,0,-0.1844,-0.1847,-0.1871,-0.1867,-0.1872,-0.1903,-0.1904,-0.192,-0.1937,-0.1944,-0.1964,-0.1972,-0.1993,-0.1999,-0.1999,-0.2019,-0.2007,-0.2022,-0.2033,-0.2033,-0.2026,-0.198,-0.1965,-0.1937,-0.1998,-0.1998,-0.1997,0,-0.1808,-0.182,-0.1815,-0.1841,-0.1844,-0.1844,-0.1859,-0.1866,-0.1885,-0.1898,-0.1909,-0.1932,-0.1935,-0.1956,-0.1963,-0.1972,-0.1978,-0.1989,-0.1989,-0.199,-0.2012,-0.198,-0.1929,-0.1925,-0.1992,-0.1993,-0.1993,0,-0.1762,-0.1778,-0.1777,-0.1785,-0.1815,-0.1814,-0.1827,-0.1847,-0.1854,-0.1868,-0.1873,-0.1888,-0.1896,-0.1907,-0.1933,-0.1946,-0.1936,-0.1959,-0.1947,-0.1946,-0.1943,-0.1942,-0.1892,-0.1948,-0.1948,-0.1948,-0.1948,0,-0.1724,-0.172,-0.1757,-0.1757,-0.1754,-0.1783,-0.1779,-0.1795,-0.1813,-0.1817,-0.1846,-0.1849,-0.1884,-0.1891,-0.1912,-0.1914,-0.1918,-0.1929,-0.1934,-0.1925,-0.1924,-0.1929,-0.1932,-0.1947,-0.1947,-0.1947,-0.1947,0,-0.1672,-0.1697,-0.1698,-0.1727,-0.1734,-0.173,-0.1755,-0.1757,-0.1776,-0.178,-0.1783,-0.1813,-0.1824,-0.1851,-0.1869,-0.1883,-0.188,-0.189,-0.1872,-0.1876,-0.1862,-0.1862,-0.1813,-0.1808,-0.1867,-0.1866,-0.1866,0,-0.1646,-0.1644,-0.1672,-0.1676,-0.1687,-0.1694,-0.1701,-0.173,-0.1737,-0.1759,-0.1758,-0.1771,-0.1782,-0.1798,-0.1822,-0.1836,-0.1847,-0.1829,-0.1849,-0.1841,-0.1847,-0.1846,-0.1846,-0.1824,-0.1823,-0.1822,-0.1822,0,-0.1596,-0.1609,-0.1618,-0.1631,-0.1639,-0.1651,-0.1665,-0.1667,-0.17,-0.1706,-0.1717,-0.1726,-0.1744,-0.1757,-0.1775,-0.1789,-0.1811,-0.1815,-0.1813,-0.1804,-0.1794,-0.1799,-0.1859,-0.1816,-0.1817,-0.1817,-0.1817,-0.1818,-0.1556,-0.1556,-0.1575,-0.1584,-0.1598,-0.161,-0.1613,-0.1632,-0.1641,-0.1658,-0.1675,-0.1684,-0.1705,-0.1731,-0.1744,-0.1752,-0.1764,-0.1761,-0.176,-0.1758,-0.1754,-0.1793,-0.1756,-0.1756,-0.1756,-0.1756,-0.1757,0,-0.1508,-0.1522,-0.153,-0.1548,-0.1556,-0.1576,-0.1592,-0.1597,-0.1604,-0.1622,-0.1632,-0.1645,-0.1658,-0.1683,-0.1698,-0.17,-0.171,-0.1703,-0.1703,-0.1706,-0.1743,-0.1744,-0.1694,-0.1694,-0.1694,-0.1694,-0.1694,-0.1694,-0.1483,-0.1483,-0.1498,-0.1506,-0.152,-0.1528,-0.1536,-0.1548,-0.1562,-0.1574,-0.1585,-0.1601,-0.1622,-0.1639,-0.1651,-0.1659,-0.1663,-0.1652,-0.1662,-0.1697,-0.1703,-0.1709,-0.1709,-0.1653,-0.1653,-0.1624,-0.1624,-0.1623]},{"header":{"parameterUnit":"m.s-1","parameterCategory":1,"la1":30.2991,"la2":30.254,"lo1":-89.0895,"lo2":-89.0444,"dx":0.0017,"dy":0.0017,"nx":28,"ny":28,"refTime":"2022-12-14T15:00:00:Z","depth":0,"parameterNumber":3,"parameterNumberName":"V-component_of_WINDS"},"data":[0,0,0,0,0,0,0,0,0,0,0,0,0,0,0,0,0,0,0,0,0,0,0,0,0,0,0,0,0,0,0,0,0,0,0,0,0,0,0,0,0,0,0,0,0,0,0,0,0,0,0,0,0,0,0,0,0,0,6.681,6.6811,0,6.6946,6.6948,6.6949,6.6959,6.6958,6.6956,6.6955,6.7092,6.7097,6.7102,0,0,0,0,0,0,0,0,0,0,0,0,0,6.6557,6.6562,6.681,6.6811,6.6813,6.6946,6.6948,6.695,6.6959,6.6958,6.6956,6.6954,6.7091,6.7097,6.7103,0,0,0,0,0,0,0,0,0,0,0,0,0,6.6677,6.6563,6.6809,6.6834,6.6838,6.6946,6.6948,6.695,6.696,6.6958,6.6955,6.6953,6.7089,6.7096,6.7104,6.7196,0,0,6.7127,6.713,0,0,0,0,0,0,0,0,6.667,6.6687,6.6829,6.6832,6.6837,6.6933,6.6909,6.7032,6.696,6.6913,6.6955,6.6952,6.7041,6.7053,6.7083,6.7202,6.7208,6.7127,6.7132,6.7135,6.7138,0,0,0,0,0,0,0,6.6662,6.6681,6.6864,6.6831,6.6836,6.6838,6.6853,6.6933,6.6988,6.6917,6.6918,6.6934,6.7043,6.7076,6.7086,6.721,6.7127,6.7134,6.7139,6.7142,6.7415,6.7417,0,0,0,0,0,0,6.6649,6.6674,6.6859,6.6868,6.6746,6.6844,6.6861,6.6905,6.6987,6.6998,6.6936,6.6934,6.7064,6.7077,6.7091,6.7208,6.7135,6.7142,6.7147,6.7412,6.7415,6.7418,0,0,0,0,0,0,6.6644,6.6666,6.6854,6.6771,6.6795,6.6851,6.69,6.6908,6.6941,6.7002,6.7011,6.696,6.7063,6.708,6.7171,6.7212,6.7146,6.7153,6.7409,6.7413,6.7417,6.7439,0,0,0,0,0,0,6.6636,6.6664,6.6699,6.6772,6.68,6.6931,6.6903,6.6913,6.6955,6.6954,6.7026,6.7036,6.7062,6.7159,6.7178,6.7222,6.7159,6.7406,6.7411,6.7416,6.7435,6.7443,6.745,0,0,0,0,0,6.6627,6.6699,6.6701,6.6723,6.6845,6.6934,6.6949,6.6979,6.6958,6.6995,6.7034,6.7034,6.7204,6.7168,6.719,6.7236,6.7403,6.7409,6.7415,6.7431,6.7441,6.745,0,0,0,0,0,0,6.6628,6.6709,6.6712,6.6809,6.6865,6.6935,6.6982,6.6988,6.705,6.7046,6.7079,6.7095,6.7185,6.7219,6.7178,6.7331,6.7301,6.7312,6.7306,6.7316,6.7324,6.7315,6.7165,0,0,0,0,0,6.664,6.6705,6.6772,6.6851,6.6879,6.6926,6.6965,6.6983,6.7041,6.7065,6.711,6.7166,6.7233,6.7276,6.734,6.7439,6.7456,6.7481,6.7489,6.7495,6.7505,6.7562,6.7575,6.7438,6.7438,6.7438,0,0,6.6664,6.6716,6.6755,6.6852,6.6898,6.6965,6.6945,6.7016,6.7067,6.7075,6.7164,6.7199,6.7264,6.736,6.7404,6.7391,6.7546,6.7503,6.7507,6.7514,6.757,6.7583,6.7594,6.7442,6.7442,6.7441,0,0,6.6745,6.6789,6.6862,6.6908,6.6977,6.7008,6.7026,6.7096,6.712,6.721,6.7218,6.7278,6.7391,6.7439,6.7477,6.7577,6.758,6.7596,6.7638,6.7694,6.7705,6.7715,6.7753,6.7766,6.7605,6.7605,6.7605,0,6.6766,6.6869,6.6898,6.6971,6.7014,6.7025,6.71,6.7143,6.7229,6.7259,6.7242,6.7387,6.7431,6.7539,6.7564,6.7594,6.7616,6.7589,6.7701,6.7711,6.7721,6.7758,6.7772,6.7607,6.7607,6.7607,6.7606,0,6.6894,6.6964,6.7015,6.71,6.7148,6.7221,6.7262,6.7308,6.7321,6.7354,6.7447,6.75,6.7577,6.7603,6.7616,6.7714,6.7705,6.7694,6.7666,6.7735,6.7771,6.7785,6.7609,6.7609,6.7608,6.7608,0,0,6.6979,6.708,6.7099,6.7139,6.7217,6.7272,6.7345,6.7422,6.7462,6.752,6.7584,6.768,6.7672,6.7716,6.7735,6.7783,6.7863,6.7767,6.7769,6.7786,6.7977,6.7987,6.8003,6.7864,6.7867,6.7869,6.7973,0,6.707,6.7203,6.7233,6.7347,6.7415,6.7427,6.7491,6.7546,6.7579,6.764,6.7676,6.7745,6.7727,6.7754,6.7803,6.7843,6.7902,6.7835,6.7926,6.7928,6.7912,6.8021,6.8031,6.8126,6.7986,6.7989,6.799,0,6.7194,6.7258,6.7381,6.7452,6.7481,6.7539,6.7613,6.7671,6.7734,6.7754,6.7804,6.7818,6.7896,6.7862,6.797,6.7925,6.7963,6.7988,6.7992,6.8004,6.7966,6.8038,6.8157,6.8172,6.8012,6.801,6.8009,0,6.7248,6.7365,6.7454,6.7487,6.7572,6.7613,6.765,6.771,6.7755,6.7819,6.7849,6.792,6.7959,6.8014,6.8047,6.8019,6.8155,6.8122,6.8175,6.8175,6.8205,6.8204,6.8335,6.8225,6.8225,6.8224,6.8224,0,6.7349,6.7424,6.748,6.7535,6.762,6.7653,6.7736,6.7772,6.7826,6.7889,6.7902,6.7961,6.7999,6.8063,6.8089,6.8177,6.8194,6.8214,6.822,6.8214,6.8212,6.8242,6.8238,6.8228,6.8227,6.8227,6.8226,0,6.7424,6.7465,6.7563,6.7636,6.7656,6.7716,6.7778,6.7832,6.7865,6.7945,6.7965,6.8017,6.8093,6.8131,6.8225,6.8242,6.8343,6.8343,6.8322,6.8326,6.8378,6.8374,6.8535,6.8559,6.843,6.8431,6.8432,0,6.7487,6.7546,6.7626,6.767,6.7708,6.7778,6.7825,6.7859,6.7907,6.7984,6.8029,6.8106,6.817,6.8291,6.8337,6.841,6.8414,6.8466,6.8425,6.8419,6.8419,6.8417,6.8424,6.8474,6.8475,6.8476,6.8477,0,6.7596,6.7614,6.7681,6.7756,6.7812,6.7872,6.7931,6.7966,6.801,6.8063,6.8142,6.8192,6.8289,6.8367,6.8443,6.848,6.8487,6.8489,6.8506,6.8502,6.8489,6.8501,6.8346,6.8486,6.8485,6.8484,6.8484,6.8484,6.767,6.7724,6.779,6.7865,6.7913,6.7969,6.8025,6.8065,6.8132,6.8216,6.8231,6.8316,6.8378,6.8482,6.8522,6.8589,6.8577,6.86,6.8607,6.8613,6.8618,6.8476,6.8602,6.8602,6.8602,6.8601,6.8601,0,6.7783,6.7826,6.7894,6.7978,6.8038,6.8039,6.8105,6.8155,6.823,6.8288,6.8351,6.8443,6.8518,6.857,6.8647,6.8691,6.8696,6.871,6.8709,6.8718,6.8622,6.8601,6.8705,6.8705,6.8705,6.8705,6.8705,6.8705,6.7849,6.7941,6.7967,6.8084,6.8126,6.821,6.8248,6.83,6.8347,6.845,6.8514,6.8547,6.8604,6.8685,6.8754,6.8767,6.8796,6.8811,6.8825,6.8735,6.8724,6.8714,6.8695,6.8816,6.8817,6.8916,6.8917,6.8918]}]]